Location: Moscow
(55.7500°N, 37.5830°E)
Time: 16:39:54
(UTC+03:00)

Transit 2A - Pass Details

Date: 30 November 2021
Orbit: 591 x 967 km, 66.7° (Epoch: 17 January)

Event Time Altitude Azimuth Distance (km) Brightness Sun altitude
Rises 05:43:30 0° 286° (WNW) 3,522 - -22.6°
Reaches altitude 10° 05:46:17 10° 297° (WNW) 2,627 - -22.2°
Exits shadow 05:49:47 26° 328° (NNW) 1,779 7.5 -21.7°
Maximum altitude 05:51:43 31° 358° (N) 1,631 7.6 -21.4°
Drops below altitude 10° 05:57:18 10° 59° (ENE) 2,716 9.5 -20.7°
Sets 06:00:14 0° 70° (ENE) 3,659 10.5 -20.3°
